Year,Month,Day,Hour,Minute,Value (Times are PST for temperature in C)
2010,07,14,00,00,13.10
2010,07,14,00,01,13.10
2010,07,14,00,02,13.10
2010,07,14,00,03,13.10
2010,07,14,00,04,13.00
2010,07,14,00,05,13.00
2010,07,14,00,06,13.00
2010,07,14,00,07,13.00
2010,07,14,00,08,12.90
2010,07,14,00,09,12.90
2010,07,14,00,10,12.90
2010,07,14,00,11,12.90
2010,07,14,00,12,12.80
2010,07,14,00,13,12.80
2010,07,14,00,14,12.80
2010,07,14,00,15,12.80
2010,07,14,00,16,12.80
2010,07,14,00,17,12.80
2010,07,14,00,18,12.70
2010,07,14,00,19,12.70
2010,07,14,00,20,12.70
2010,07,14,00,21,12.70
2010,07,14,00,22,12.80
2010,07,14,00,23,12.80
2010,07,14,00,24,12.80
2010,07,14,00,25,12.90
2010,07,14,00,26,13.00
2010,07,14,00,27,13.10
2010,07,14,00,28,13.20
2010,07,14,00,29,13.30
2010,07,14,00,30,13.40
2010,07,14,00,31,13.60
2010,07,14,00,32,13.70
2010,07,14,00,33,13.80
2010,07,14,00,34,14.00
2010,07,14,00,35,14.10
2010,07,14,00,36,14.20
2010,07,14,00,37,14.30
2010,07,14,00,38,14.40
2010,07,14,00,39,14.50
2010,07,14,00,40,14.50
2010,07,14,00,41,14.50
2010,07,14,00,42,14.60
2010,07,14,00,43,14.60
2010,07,14,00,44,14.60
2010,07,14,00,45,14.70
2010,07,14,00,46,14.70
2010,07,14,00,47,14.80
2010,07,14,00,48,14.80
2010,07,14,00,49,14.90
2010,07,14,00,50,15.00
2010,07,14,00,51,15.00
2010,07,14,00,52,15.00
2010,07,14,00,53,15.00
2010,07,14,00,54,15.00
2010,07,14,00,55,15.00
2010,07,14,00,56,15.00
2010,07,14,00,57,15.00
2010,07,14,00,58,15.00
2010,07,14,00,59,15.00
2010,07,14,01,00,15.00
2010,07,14,01,01,15.00
2010,07,14,01,02,15.00
2010,07,14,01,03,15.00
2010,07,14,01,04,15.00
2010,07,14,01,05,15.00
2010,07,14,01,06,15.00
2010,07,14,01,07,15.00
2010,07,14,01,08,15.00
2010,07,14,01,09,15.00
2010,07,14,01,10,15.00
2010,07,14,01,11,15.00
2010,07,14,01,12,15.00
2010,07,14,01,13,15.00
2010,07,14,01,14,15.00
2010,07,14,01,15,15.00
2010,07,14,01,16,15.00
2010,07,14,01,17,15.10
2010,07,14,01,18,15.10
2010,07,14,01,19,15.10
2010,07,14,01,20,15.10
2010,07,14,01,21,15.10
2010,07,14,01,22,15.10
2010,07,14,01,23,15.20
2010,07,14,01,24,15.20
2010,07,14,01,25,15.20
2010,07,14,01,26,15.20
2010,07,14,01,27,15.20
2010,07,14,01,28,15.20
2010,07,14,01,29,15.20
2010,07,14,01,30,15.20
2010,07,14,01,31,15.20
2010,07,14,01,32,15.20
2010,07,14,01,33,15.20
2010,07,14,01,34,15.30
2010,07,14,01,35,15.30
2010,07,14,01,36,15.30
2010,07,14,01,37,15.30
2010,07,14,01,38,15.30
2010,07,14,01,39,15.30
2010,07,14,01,40,15.30
2010,07,14,01,41,15.30
2010,07,14,01,42,15.30
2010,07,14,01,43,15.30
2010,07,14,01,44,15.30
2010,07,14,01,45,15.30
2010,07,14,01,46,15.30
2010,07,14,01,47,15.30
2010,07,14,01,48,15.30
2010,07,14,01,49,15.30
2010,07,14,01,50,15.30
2010,07,14,01,51,15.30
2010,07,14,01,52,15.30
2010,07,14,01,53,15.30
2010,07,14,01,54,15.30
2010,07,14,01,55,15.30
2010,07,14,01,56,15.30
2010,07,14,01,57,15.30
2010,07,14,01,58,15.30
2010,07,14,01,59,15.30
2010,07,14,02,00,15.30
2010,07,14,02,01,15.30
2010,07,14,02,02,15.30
2010,07,14,02,03,15.30
2010,07,14,02,04,15.20
2010,07,14,02,05,15.20
2010,07,14,02,06,15.20
2010,07,14,02,07,15.20
2010,07,14,02,08,15.20
2010,07,14,02,09,15.20
2010,07,14,02,10,15.10
2010,07,14,02,11,15.00
2010,07,14,02,12,15.00
2010,07,14,02,13,15.00
2010,07,14,02,14,15.00
2010,07,14,02,15,15.00
2010,07,14,02,16,15.00
2010,07,14,02,17,15.00
2010,07,14,02,18,15.00
2010,07,14,02,19,15.00
2010,07,14,02,20,15.00
2010,07,14,02,21,15.00
2010,07,14,02,22,14.90
2010,07,14,02,23,14.90
2010,07,14,02,24,14.90
2010,07,14,02,25,14.90
2010,07,14,02,26,14.90
2010,07,14,02,27,14.90
2010,07,14,02,28,14.90
2010,07,14,02,29,14.90
2010,07,14,02,30,14.90
2010,07,14,02,31,14.90
2010,07,14,02,32,14.90
2010,07,14,02,33,14.90
2010,07,14,02,34,14.90
2010,07,14,02,35,14.90
2010,07,14,02,36,14.90
2010,07,14,02,37,14.90
2010,07,14,02,38,14.80
2010,07,14,02,39,14.80
2010,07,14,02,40,14.80
2010,07,14,02,41,14.80
2010,07,14,02,42,14.80
2010,07,14,02,43,14.80
2010,07,14,02,44,14.80
2010,07,14,02,45,14.80
2010,07,14,02,46,14.80
2010,07,14,02,47,14.80
2010,07,14,02,48,14.80
2010,07,14,02,49,14.80
2010,07,14,02,50,14.80
2010,07,14,02,51,14.70
2010,07,14,02,52,14.70
2010,07,14,02,53,14.70
2010,07,14,02,54,14.70
2010,07,14,02,55,14.70
2010,07,14,02,56,14.70
2010,07,14,02,57,14.60
2010,07,14,02,58,14.60
2010,07,14,02,59,14.60
2010,07,14,03,00,14.50
2010,07,14,03,01,14.50
2010,07,14,03,02,14.50
2010,07,14,03,03,14.40
2010,07,14,03,04,14.40
2010,07,14,03,05,14.40
2010,07,14,03,06,14.40
2010,07,14,03,07,14.40
2010,07,14,03,08,14.40
2010,07,14,03,09,14.40
2010,07,14,03,10,14.40
2010,07,14,03,11,14.30
2010,07,14,03,12,14.30
2010,07,14,03,13,14.30
2010,07,14,03,14,14.30
2010,07,14,03,15,14.20
2010,07,14,03,16,14.20
2010,07,14,03,17,14.10
2010,07,14,03,18,14.10
2010,07,14,03,19,14.00
2010,07,14,03,20,13.90
2010,07,14,03,21,13.90
2010,07,14,03,22,13.80
2010,07,14,03,23,13.80
2010,07,14,03,24,13.70
2010,07,14,03,25,13.60
2010,07,14,03,26,13.60
2010,07,14,03,27,13.50
2010,07,14,03,28,13.50
2010,07,14,03,29,13.40
2010,07,14,03,30,13.40
2010,07,14,03,31,13.30
2010,07,14,03,32,13.30
2010,07,14,03,33,13.30
2010,07,14,03,34,13.20
2010,07,14,03,35,13.20
2010,07,14,03,36,13.10
2010,07,14,03,37,13.10
2010,07,14,03,38,13.10
2010,07,14,03,39,13.00
2010,07,14,03,40,13.00
2010,07,14,03,41,12.90
2010,07,14,03,42,12.90
2010,07,14,03,43,12.80
2010,07,14,03,44,12.80
2010,07,14,03,45,12.80
2010,07,14,03,46,12.70
2010,07,14,03,47,12.70
2010,07,14,03,48,12.70
2010,07,14,03,49,12.60
2010,07,14,03,50,12.60
2010,07,14,03,51,12.60
2010,07,14,03,52,12.60
2010,07,14,03,53,12.60
2010,07,14,03,54,12.50
2010,07,14,03,55,12.50
2010,07,14,03,56,12.50
2010,07,14,03,57,12.40
2010,07,14,03,58,12.40
2010,07,14,03,59,12.40
2010,07,14,04,00,12.40
2010,07,14,04,01,12.30
2010,07,14,04,02,12.30
2010,07,14,04,03,12.30
2010,07,14,04,04,12.30
2010,07,14,04,05,12.30
2010,07,14,04,06,12.20
2010,07,14,04,07,12.20
2010,07,14,04,08,12.20
2010,07,14,04,09,12.20
2010,07,14,04,10,12.20
2010,07,14,04,11,12.10
2010,07,14,04,12,12.10
2010,07,14,04,13,12.10
2010,07,14,04,14,12.00
2010,07,14,04,15,12.00
2010,07,14,04,16,12.00
2010,07,14,04,17,11.90
2010,07,14,04,18,11.90
2010,07,14,04,19,11.90
2010,07,14,04,20,11.90
2010,07,14,04,21,11.80
2010,07,14,04,22,11.80
2010,07,14,04,23,11.80
2010,07,14,04,24,11.80
2010,07,14,04,25,11.80
2010,07,14,04,26,11.70
2010,07,14,04,27,11.70
2010,07,14,04,28,11.70
2010,07,14,04,29,11.70
2010,07,14,04,30,11.70
2010,07,14,04,31,11.70
2010,07,14,04,32,11.70
2010,07,14,04,33,11.60
2010,07,14,04,34,11.60
2010,07,14,04,35,11.60
2010,07,14,04,36,11.60
2010,07,14,04,37,11.50
2010,07,14,04,38,11.50
2010,07,14,04,39,11.50
2010,07,14,04,40,11.40
2010,07,14,04,41,11.40
2010,07,14,04,42,11.40
2010,07,14,04,43,11.40
2010,07,14,04,44,11.40
2010,07,14,04,45,11.40
2010,07,14,04,46,11.40
2010,07,14,04,47,11.40
2010,07,14,04,48,11.30
2010,07,14,04,49,11.30
2010,07,14,04,50,11.30
2010,07,14,04,51,11.30
2010,07,14,04,52,11.30
2010,07,14,04,53,11.30
2010,07,14,04,54,11.30
2010,07,14,04,55,11.30
2010,07,14,04,56,11.30
2010,07,14,04,57,11.20
2010,07,14,04,58,11.20
2010,07,14,04,59,11.20
2010,07,14,05,00,11.20
2010,07,14,05,01,11.20
2010,07,14,05,02,11.20
2010,07,14,05,03,11.20
2010,07,14,05,04,11.20
2010,07,14,05,05,11.20
2010,07,14,05,06,11.20
2010,07,14,05,07,11.20
2010,07,14,05,08,11.20
2010,07,14,05,09,11.20
2010,07,14,05,10,11.20
2010,07,14,05,11,11.20
2010,07,14,05,12,11.10
2010,07,14,05,13,11.10
2010,07,14,05,14,11.10
2010,07,14,05,15,11.10
2010,07,14,05,16,11.10
2010,07,14,05,17,11.10
2010,07,14,05,18,11.10
2010,07,14,05,19,11.10
2010,07,14,05,20,11.10
2010,07,14,05,21,11.10
2010,07,14,05,22,11.10
2010,07,14,05,23,11.00
2010,07,14,05,24,11.10
2010,07,14,05,25,11.00
2010,07,14,05,26,11.10
2010,07,14,05,27,11.10
2010,07,14,05,28,11.10
2010,07,14,05,29,11.10
2010,07,14,05,30,11.10
2010,07,14,05,31,11.10
2010,07,14,05,32,11.10
2010,07,14,05,33,11.10
2010,07,14,05,34,11.10
2010,07,14,05,35,11.10
2010,07,14,05,36,11.10
2010,07,14,05,37,11.10
2010,07,14,05,38,11.10
2010,07,14,05,39,11.10
2010,07,14,05,40,11.10
2010,07,14,05,41,11.10
2010,07,14,05,42,11.10
2010,07,14,05,43,11.10
2010,07,14,05,44,11.20
2010,07,14,05,45,11.10
2010,07,14,05,46,11.10
2010,07,14,05,47,11.20
2010,07,14,05,48,11.10
2010,07,14,05,49,11.20
2010,07,14,05,50,11.20
2010,07,14,05,51,11.20
2010,07,14,05,52,11.20
2010,07,14,05,53,11.20
2010,07,14,05,54,11.20
2010,07,14,05,55,11.20
2010,07,14,05,56,11.20
2010,07,14,05,57,11.20
2010,07,14,05,58,11.30
2010,07,14,05,59,11.30
2010,07,14,06,00,11.30
2010,07,14,06,01,11.30
2010,07,14,06,02,11.30
2010,07,14,06,03,11.30
2010,07,14,06,04,11.30
2010,07,14,06,05,11.40
2010,07,14,06,06,11.40
2010,07,14,06,07,11.40
2010,07,14,06,08,11.40
2010,07,14,06,09,11.40
2010,07,14,06,10,11.40
2010,07,14,06,11,11.50
2010,07,14,06,12,11.50
2010,07,14,06,13,11.60
2010,07,14,06,14,11.60
2010,07,14,06,15,11.60
2010,07,14,06,16,11.60
2010,07,14,06,17,11.70
2010,07,14,06,18,11.70
2010,07,14,06,19,11.70
2010,07,14,06,20,11.80
2010,07,14,06,21,11.80
2010,07,14,06,22,11.80
2010,07,14,06,23,11.90
2010,07,14,06,24,11.90
2010,07,14,06,25,12.00
2010,07,14,06,26,12.00
2010,07,14,06,27,12.10
2010,07,14,06,28,12.10
2010,07,14,06,29,12.20
2010,07,14,06,30,12.20
2010,07,14,06,31,12.20
2010,07,14,06,32,12.30
2010,07,14,06,33,12.30
2010,07,14,06,34,12.40
2010,07,14,06,35,12.40
2010,07,14,06,36,12.50
2010,07,14,06,37,12.60
2010,07,14,06,38,12.60
2010,07,14,06,39,12.70
2010,07,14,06,40,12.80
2010,07,14,06,41,12.80
2010,07,14,06,42,12.90
2010,07,14,06,43,12.90
2010,07,14,06,44,13.00
2010,07,14,06,45,13.10
2010,07,14,06,46,13.10
2010,07,14,06,47,13.20
2010,07,14,06,48,13.30
2010,07,14,06,49,13.30
2010,07,14,06,50,13.40
2010,07,14,06,51,13.40
2010,07,14,06,52,13.50
2010,07,14,06,53,13.60
2010,07,14,06,54,13.60
2010,07,14,06,55,13.70
2010,07,14,06,56,13.80
2010,07,14,06,57,13.90
2010,07,14,06,58,14.00
2010,07,14,06,59,14.10
2010,07,14,07,00,14.20
2010,07,14,07,01,14.30
2010,07,14,07,02,14.40
2010,07,14,07,03,14.50
2010,07,14,07,04,14.60
2010,07,14,07,05,14.60
2010,07,14,07,06,14.70
2010,07,14,07,07,14.80
2010,07,14,07,08,14.80
2010,07,14,07,09,14.90
2010,07,14,07,10,15.00
2010,07,14,07,11,15.00
2010,07,14,07,12,15.00
2010,07,14,07,13,15.00
2010,07,14,07,14,15.00
2010,07,14,07,15,15.00
2010,07,14,07,16,15.00
2010,07,14,07,17,15.00
2010,07,14,07,18,15.00
2010,07,14,07,19,15.00
2010,07,14,07,20,15.10
2010,07,14,07,21,15.20
2010,07,14,07,22,15.20
2010,07,14,07,23,15.20
2010,07,14,07,24,15.30
2010,07,14,07,25,15.30
2010,07,14,07,26,15.40
2010,07,14,07,27,15.50
2010,07,14,07,28,15.60
2010,07,14,07,29,15.70
2010,07,14,07,30,15.70
2010,07,14,07,31,15.80
2010,07,14,07,32,15.90
2010,07,14,07,33,15.90
2010,07,14,07,34,15.90
2010,07,14,07,35,16.00
2010,07,14,07,36,16.10
2010,07,14,07,37,16.10
2010,07,14,07,38,16.10
2010,07,14,07,39,16.10
2010,07,14,07,40,16.10
2010,07,14,07,41,16.10
2010,07,14,07,42,16.10
2010,07,14,07,43,16.00
2010,07,14,07,44,16.00
2010,07,14,07,45,15.90
2010,07,14,07,46,15.90
2010,07,14,07,47,15.90
2010,07,14,07,48,16.00
2010,07,14,07,49,16.00
2010,07,14,07,50,16.10
2010,07,14,07,51,16.10
2010,07,14,07,52,16.20
2010,07,14,07,53,16.20
2010,07,14,07,54,16.30
2010,07,14,07,55,16.30
2010,07,14,07,56,16.30
2010,07,14,07,57,16.30
2010,07,14,07,58,16.30
2010,07,14,07,59,16.30
2010,07,14,08,00,16.20
2010,07,14,08,01,16.20
2010,07,14,08,02,16.20
2010,07,14,08,03,16.20
2010,07,14,08,04,16.20
2010,07,14,08,05,16.10
2010,07,14,08,06,16.20
2010,07,14,08,07,16.20
2010,07,14,08,08,16.20
2010,07,14,08,09,16.20
2010,07,14,08,10,16.20
2010,07,14,08,11,16.20
2010,07,14,08,12,16.20
2010,07,14,08,13,16.20
2010,07,14,08,14,16.20
2010,07,14,08,15,16.20
2010,07,14,08,16,16.20
2010,07,14,08,17,16.10
2010,07,14,08,18,16.10
2010,07,14,08,19,16.10
2010,07,14,08,20,16.10
2010,07,14,08,21,16.10
2010,07,14,08,22,16.10
2010,07,14,08,23,16.10
2010,07,14,08,24,16.10
2010,07,14,08,25,16.20
2010,07,14,08,26,16.20
2010,07,14,08,27,16.20
2010,07,14,08,28,16.20
2010,07,14,08,29,16.20
2010,07,14,08,30,16.20
2010,07,14,08,31,16.20
2010,07,14,08,32,16.20
2010,07,14,08,33,16.20
2010,07,14,08,34,16.20
2010,07,14,08,35,16.10
2010,07,14,08,36,16.20
2010,07,14,08,37,16.20
2010,07,14,08,38,16.20
2010,07,14,08,39,16.20
2010,07,14,08,40,16.20
2010,07,14,08,41,16.20
2010,07,14,08,42,16.20
2010,07,14,08,43,16.20
2010,07,14,08,44,16.20
2010,07,14,08,45,16.20
2010,07,14,08,46,16.20
2010,07,14,08,47,16.20
2010,07,14,08,48,16.20
2010,07,14,08,49,16.20
2010,07,14,08,50,16.20
2010,07,14,08,51,16.20
2010,07,14,08,52,16.20
2010,07,14,08,53,16.20
2010,07,14,08,54,16.20
2010,07,14,08,55,16.20
2010,07,14,08,56,16.20
2010,07,14,08,57,16.20
2010,07,14,08,58,16.10
2010,07,14,08,59,16.10
2010,07,14,09,00,16.10
2010,07,14,09,01,16.00
2010,07,14,09,02,16.00
2010,07,14,09,03,16.00
2010,07,14,09,04,15.90
2010,07,14,09,05,15.90
2010,07,14,09,06,15.90
2010,07,14,09,07,15.90
2010,07,14,09,08,15.90
2010,07,14,09,09,15.90
2010,07,14,09,10,15.90
2010,07,14,09,11,16.00
2010,07,14,09,12,16.00
2010,07,14,09,13,16.00
2010,07,14,09,14,16.00
2010,07,14,09,15,16.10
2010,07,14,09,16,16.10
2010,07,14,09,17,16.10
2010,07,14,09,18,16.10
2010,07,14,09,19,16.10
2010,07,14,09,20,16.00
2010,07,14,09,21,16.00
2010,07,14,09,22,15.90
2010,07,14,09,23,15.90
2010,07,14,09,24,15.90
2010,07,14,09,25,15.90
2010,07,14,09,26,15.90
2010,07,14,09,27,15.90
2010,07,14,09,28,15.90
2010,07,14,09,29,15.90
2010,07,14,09,30,16.00
2010,07,14,09,31,16.00
2010,07,14,09,32,16.10
2010,07,14,09,33,16.20
2010,07,14,09,34,16.30
2010,07,14,09,35,16.30
2010,07,14,09,36,16.40
2010,07,14,09,37,16.50
2010,07,14,09,38,16.50
2010,07,14,09,39,16.60
2010,07,14,09,40,16.60
2010,07,14,09,41,16.60
2010,07,14,09,42,16.60
2010,07,14,09,43,16.60
2010,07,14,09,44,16.50
2010,07,14,09,45,16.40
2010,07,14,09,46,16.30
2010,07,14,09,47,16.30
2010,07,14,09,48,16.30
2010,07,14,09,49,16.30
2010,07,14,09,50,16.30
2010,07,14,09,51,16.30
2010,07,14,09,52,16.30
2010,07,14,09,53,16.40
2010,07,14,09,54,16.40
2010,07,14,09,55,16.50
2010,07,14,09,56,16.40
2010,07,14,09,57,16.40
2010,07,14,09,58,16.40
2010,07,14,09,59,16.50
2010,07,14,10,00,16.60
2010,07,14,10,01,16.60
2010,07,14,10,02,16.60
2010,07,14,10,03,16.60
2010,07,14,10,04,16.60
2010,07,14,10,05,16.60
2010,07,14,10,06,16.60
2010,07,14,10,07,16.60
2010,07,14,10,08,16.60
2010,07,14,10,09,16.70
2010,07,14,10,10,16.70
2010,07,14,10,11,16.60
2010,07,14,10,12,16.70
2010,07,14,10,13,16.70
2010,07,14,10,14,16.80
2010,07,14,10,15,16.80
2010,07,14,10,16,16.80
2010,07,14,10,17,16.80
2010,07,14,10,18,16.80
2010,07,14,10,19,16.90
2010,07,14,10,20,17.00
2010,07,14,10,21,17.00
2010,07,14,10,22,17.00
2010,07,14,10,23,17.00
2010,07,14,10,24,17.00
2010,07,14,10,25,17.00
2010,07,14,10,26,17.00
2010,07,14,10,27,17.00
2010,07,14,10,28,17.00
2010,07,14,10,29,17.10
2010,07,14,10,30,17.00
2010,07,14,10,31,17.00
2010,07,14,10,32,16.90
2010,07,14,10,33,16.90
2010,07,14,10,34,16.80
2010,07,14,10,35,16.80
2010,07,14,10,36,16.80
2010,07,14,10,37,16.90
2010,07,14,10,38,16.90
2010,07,14,10,39,16.90
2010,07,14,10,40,16.90
2010,07,14,10,41,17.00
2010,07,14,10,42,17.10
2010,07,14,10,43,17.20
2010,07,14,10,44,17.20
2010,07,14,10,45,17.30
2010,07,14,10,46,17.30
2010,07,14,10,47,17.30
2010,07,14,10,48,17.30
2010,07,14,10,49,17.30
2010,07,14,10,50,17.40
2010,07,14,10,51,17.30
2010,07,14,10,52,17.40
2010,07,14,10,53,17.40
2010,07,14,10,54,17.40
2010,07,14,10,55,17.40
2010,07,14,10,56,17.40
2010,07,14,10,57,17.40
2010,07,14,10,58,17.50
2010,07,14,10,59,17.50
2010,07,14,11,00,17.60
2010,07,14,11,01,17.60
2010,07,14,11,02,17.60
2010,07,14,11,03,17.60
2010,07,14,11,04,17.50
2010,07,14,11,05,17.40
2010,07,14,11,06,17.40
2010,07,14,11,07,17.40
2010,07,14,11,08,17.50
2010,07,14,11,09,17.50
2010,07,14,11,10,17.60
2010,07,14,11,11,17.60
2010,07,14,11,12,17.60
2010,07,14,11,13,17.60
2010,07,14,11,14,17.50
2010,07,14,11,15,17.50
2010,07,14,11,16,17.40
2010,07,14,11,17,17.40
2010,07,14,11,18,17.30
2010,07,14,11,19,17.30
2010,07,14,11,20,17.30
2010,07,14,11,21,17.30
2010,07,14,11,22,17.30
2010,07,14,11,23,17.20
2010,07,14,11,24,17.20
2010,07,14,11,25,17.20
2010,07,14,11,26,17.20
2010,07,14,11,27,17.20
2010,07,14,11,28,17.20
2010,07,14,11,29,17.30
2010,07,14,11,30,17.30
2010,07,14,11,31,17.30
2010,07,14,11,32,17.20
2010,07,14,11,33,17.20
2010,07,14,11,34,17.20
2010,07,14,11,35,17.20
2010,07,14,11,36,17.20
2010,07,14,11,37,17.20
2010,07,14,11,38,17.20
2010,07,14,11,39,17.30
2010,07,14,11,40,17.40
2010,07,14,11,41,17.40
2010,07,14,11,42,17.50
2010,07,14,11,43,17.50
2010,07,14,11,44,17.60
2010,07,14,11,45,17.60
2010,07,14,11,46,17.60
2010,07,14,11,47,17.60
2010,07,14,11,48,17.60
2010,07,14,11,49,17.60
2010,07,14,11,50,17.60
2010,07,14,11,51,17.60
2010,07,14,11,52,17.60
2010,07,14,11,53,17.60
2010,07,14,11,54,17.60
2010,07,14,11,55,17.60
2010,07,14,11,56,17.60
2010,07,14,11,57,17.60
2010,07,14,11,58,17.60
2010,07,14,11,59,17.60
2010,07,14,12,00,17.60
2010,07,14,12,01,17.70
2010,07,14,12,02,17.70
2010,07,14,12,03,17.70
2010,07,14,12,04,17.70
2010,07,14,12,05,17.70
2010,07,14,12,13,17.80
2010,07,14,12,14,17.80
2010,07,14,12,15,17.80
2010,07,14,12,16,17.80
2010,07,14,12,17,17.80
2010,07,14,12,18,17.80
2010,07,14,12,19,17.80
2010,07,14,12,20,17.90
2010,07,14,12,21,17.90
2010,07,14,12,22,17.90
2010,07,14,12,23,18.00
2010,07,14,12,24,18.00
2010,07,14,12,25,18.10
2010,07,14,12,26,18.10
2010,07,14,12,27,18.20
2010,07,14,12,28,18.20
2010,07,14,12,29,18.20
2010,07,14,12,30,18.30
2010,07,14,12,31,18.40
2010,07,14,12,32,18.40
2010,07,14,12,33,18.50
2010,07,14,12,34,18.50
2010,07,14,12,35,18.60
2010,07,14,12,36,18.70
2010,07,14,12,37,18.80
2010,07,14,12,38,18.90
2010,07,14,12,39,18.90
2010,07,14,12,40,19.00
2010,07,14,12,41,19.00
2010,07,14,12,42,18.90
2010,07,14,12,43,18.90
2010,07,14,12,44,18.90
2010,07,14,12,45,18.90
2010,07,14,12,46,18.90
2010,07,14,12,47,18.90
2010,07,14,12,48,19.00
2010,07,14,12,49,19.10
2010,07,14,12,50,19.20
2010,07,14,12,51,19.20
2010,07,14,12,52,19.30
2010,07,14,12,53,19.30
2010,07,14,12,54,19.30
2010,07,14,12,55,19.30
2010,07,14,12,56,19.10
2010,07,14,12,57,19.10
2010,07,14,12,58,19.00
2010,07,14,12,59,18.90
2010,07,14,13,00,19.00
2010,07,14,13,01,19.10
2010,07,14,13,02,19.20
2010,07,14,13,03,19.20
2010,07,14,13,04,19.30
2010,07,14,13,05,19.30
2010,07,14,13,06,19.30
2010,07,14,13,07,19.30
2010,07,14,13,08,19.40
2010,07,14,13,09,19.40
2010,07,14,13,10,19.40
2010,07,14,13,11,19.50
2010,07,14,13,12,19.50
2010,07,14,13,13,19.60
2010,07,14,13,14,19.60
2010,07,14,13,15,19.70
2010,07,14,13,16,19.70
2010,07,14,13,17,19.70
2010,07,14,13,18,19.70
2010,07,14,13,19,19.70
2010,07,14,13,20,19.70
2010,07,14,13,21,19.70
2010,07,14,13,22,19.70
2010,07,14,13,23,19.80
2010,07,14,13,24,19.90
2010,07,14,13,25,20.00
2010,07,14,13,26,20.10
2010,07,14,13,27,20.10
2010,07,14,13,28,20.10
2010,07,14,13,29,20.10
2010,07,14,13,30,20.10
2010,07,14,13,31,20.10
2010,07,14,13,32,20.10
2010,07,14,13,33,20.00
2010,07,14,13,34,19.90
2010,07,14,13,35,19.70
2010,07,14,13,36,19.60
2010,07,14,13,37,19.60
2010,07,14,13,38,19.60
2010,07,14,13,39,19.60
2010,07,14,13,40,19.60
2010,07,14,13,41,19.50
2010,07,14,13,42,19.50
2010,07,14,13,43,19.60
2010,07,14,13,44,19.60
2010,07,14,13,45,19.70
2010,07,14,13,46,19.70
2010,07,14,13,47,19.60
2010,07,14,13,48,19.70
2010,07,14,13,49,19.70
2010,07,14,13,50,19.60
2010,07,14,13,51,19.60
2010,07,14,13,52,19.60
2010,07,14,13,53,19.50
2010,07,14,13,54,19.50
2010,07,14,13,55,19.50
2010,07,14,13,56,19.40
2010,07,14,13,57,19.50
2010,07,14,13,58,19.40
2010,07,14,13,59,19.40
2010,07,14,14,00,19.50
2010,07,14,14,01,19.60
2010,07,14,14,02,19.60
2010,07,14,14,03,19.50
2010,07,14,14,04,19.40
2010,07,14,14,05,19.40
2010,07,14,14,06,19.30
2010,07,14,14,07,19.30
2010,07,14,14,08,19.40
2010,07,14,14,09,19.50
2010,07,14,14,10,19.50
2010,07,14,14,11,19.60
2010,07,14,14,12,19.70
2010,07,14,14,13,19.70
2010,07,14,14,14,19.80
2010,07,14,14,15,19.80
2010,07,14,14,16,19.90
2010,07,14,14,17,20.00
2010,07,14,14,18,20.00
2010,07,14,14,19,20.10
2010,07,14,14,20,20.20
2010,07,14,14,21,20.20
2010,07,14,14,22,20.30
2010,07,14,14,23,20.30
2010,07,14,14,24,20.30
2010,07,14,14,25,20.40
2010,07,14,14,26,20.40
2010,07,14,14,27,20.40
2010,07,14,14,28,20.40
2010,07,14,14,29,20.40
2010,07,14,14,30,20.50
2010,07,14,14,31,20.60
2010,07,14,14,32,20.60
2010,07,14,14,33,20.60
2010,07,14,14,34,20.60
2010,07,14,14,35,20.70
2010,07,14,14,36,20.70
2010,07,14,14,37,20.70
2010,07,14,14,38,20.70
2010,07,14,14,39,20.80
2010,07,14,14,40,20.80
2010,07,14,14,41,20.80
2010,07,14,14,42,20.80
2010,07,14,14,43,20.80
2010,07,14,14,44,20.80
2010,07,14,14,45,20.80
2010,07,14,14,46,20.90
2010,07,14,14,47,20.90
2010,07,14,14,48,21.00
2010,07,14,14,49,21.00
2010,07,14,14,50,21.10
2010,07,14,14,51,21.20
2010,07,14,14,52,21.20
2010,07,14,14,53,21.30
2010,07,14,14,54,21.40
2010,07,14,14,55,21.50
2010,07,14,14,56,21.60
2010,07,14,14,57,21.70
2010,07,14,14,58,21.70
2010,07,14,14,59,21.70
2010,07,14,15,00,21.80
2010,07,14,15,01,21.80
2010,07,14,15,02,21.80
2010,07,14,15,03,21.80
2010,07,14,15,04,21.80
2010,07,14,15,05,21.70
2010,07,14,15,06,21.70
2010,07,14,15,07,21.70
2010,07,14,15,08,21.70
2010,07,14,15,09,21.60
2010,07,14,15,10,21.60
2010,07,14,15,11,21.60
2010,07,14,15,12,21.50
2010,07,14,15,13,21.40
2010,07,14,15,14,21.40
2010,07,14,15,15,21.30
2010,07,14,15,16,21.30
2010,07,14,15,17,21.40
2010,07,14,15,18,21.40
2010,07,14,15,19,21.40
2010,07,14,15,20,21.40
2010,07,14,15,21,21.30
2010,07,14,15,22,21.30
2010,07,14,15,23,21.20
2010,07,14,15,24,21.20
2010,07,14,15,25,21.20
2010,07,14,15,26,21.20
2010,07,14,15,27,21.30
2010,07,14,15,28,21.30
2010,07,14,15,29,21.40
2010,07,14,15,30,21.40
2010,07,14,15,31,21.50
2010,07,14,15,32,21.50
2010,07,14,15,33,21.50
2010,07,14,15,34,21.50
2010,07,14,15,35,21.40
2010,07,14,15,36,21.40
2010,07,14,15,37,21.40
2010,07,14,15,38,21.40
2010,07,14,15,39,21.40
2010,07,14,15,40,21.40
2010,07,14,15,41,21.40
2010,07,14,15,42,21.40
2010,07,14,15,43,21.50
2010,07,14,15,44,21.50
2010,07,14,15,45,21.50
2010,07,14,15,46,21.50
2010,07,14,15,47,21.50
2010,07,14,15,48,21.40
2010,07,14,15,49,21.40
2010,07,14,15,50,21.30
2010,07,14,15,51,21.30
2010,07,14,15,52,21.30
2010,07,14,15,53,21.30
2010,07,14,15,54,21.20
2010,07,14,15,55,21.20
2010,07,14,15,56,21.20
2010,07,14,15,57,21.20
2010,07,14,15,58,21.20
2010,07,14,15,59,21.20
2010,07,14,16,00,21.20
2010,07,14,16,01,21.20
2010,07,14,16,02,21.20
2010,07,14,16,03,21.20
2010,07,14,16,04,21.20
2010,07,14,16,05,21.20
2010,07,14,16,06,21.20
2010,07,14,16,07,21.20
2010,07,14,16,08,21.20
2010,07,14,16,09,21.20
2010,07,14,16,10,21.20
2010,07,14,16,11,21.20
2010,07,14,16,12,21.20
2010,07,14,16,13,21.20
2010,07,14,16,14,21.20
2010,07,14,16,15,21.30
2010,07,14,16,16,21.30
2010,07,14,16,17,21.40
2010,07,14,16,18,21.40
2010,07,14,16,19,21.50
2010,07,14,16,20,21.70
2010,07,14,16,21,21.70
2010,07,14,16,22,21.70
2010,07,14,16,23,21.80
2010,07,14,16,24,21.80
2010,07,14,16,25,21.90
2010,07,14,16,26,21.90
2010,07,14,16,27,22.00
2010,07,14,16,28,22.00
2010,07,14,16,29,22.00
2010,07,14,16,30,22.00
2010,07,14,16,31,22.00
2010,07,14,16,32,22.10
2010,07,14,16,33,22.00
2010,07,14,16,34,22.00
2010,07,14,16,35,22.00
2010,07,14,16,36,22.10
2010,07,14,16,37,22.10
2010,07,14,16,38,22.10
2010,07,14,16,39,22.00
2010,07,14,16,40,22.00
2010,07,14,16,41,21.90
2010,07,14,16,42,21.80
2010,07,14,16,43,21.80
2010,07,14,16,44,21.80
2010,07,14,16,45,21.80
2010,07,14,16,46,21.80
2010,07,14,16,47,21.80
2010,07,14,16,48,21.70
2010,07,14,16,49,21.70
2010,07,14,16,50,21.70
2010,07,14,16,51,21.70
2010,07,14,16,52,21.60
2010,07,14,16,53,21.70
2010,07,14,16,54,21.70
2010,07,14,16,55,21.60
2010,07,14,16,56,21.60
2010,07,14,16,57,21.60
2010,07,14,16,58,21.60
2010,07,14,16,59,21.60
2010,07,14,17,00,21.60
2010,07,14,17,01,21.60
2010,07,14,17,02,21.60
2010,07,14,17,03,21.70
2010,07,14,17,04,21.70
2010,07,14,17,05,21.70
2010,07,14,17,06,21.70
2010,07,14,17,07,21.70
2010,07,14,17,08,21.70
2010,07,14,17,09,21.80
2010,07,14,17,10,21.80
2010,07,14,17,11,21.90
2010,07,14,17,12,22.00
2010,07,14,17,13,22.10
2010,07,14,17,14,22.10
2010,07,14,17,15,22.10
2010,07,14,17,16,22.10
2010,07,14,17,17,22.10
2010,07,14,17,18,22.20
2010,07,14,17,19,22.20
2010,07,14,17,20,22.10
2010,07,14,17,21,22.10
2010,07,14,17,22,22.10
2010,07,14,17,23,22.10
2010,07,14,17,24,22.10
2010,07,14,17,25,22.20
2010,07,14,17,26,22.20